Hourly Data Report for June 10, 2021

BORDEN AWOS
ONTARIO
Current Station Operator: DND

44°16'20.000" N
79°54'42.000" W
222.50 m
611B002
71534
YBN

Download Data

Hourly Data (June 2021)
Hourly Data Report for June 10, 2021
TIME
LST
Temp Definition
°C
Dew Point Definition
°C
Rel Hum Definition
%
Precip. Amount Definition
mm

Wind Dir Definition
10's deg

Wind Spd Definition
km/h
Visibility Definition
km
Stn Press Definition
kPa
Hmdx Definition


Wind Chill Definition


Weather Definition


00:00 16.7 14.8 89     0 14.5 99.29     LegendNANA
01:00 16.1 14.5 90   30 4 14.5 99.27     LegendNANA
02:00 14.6 13.5 93     0 2.6 99.24     LegendNANA
03:00
04:00 13.1 11.8 92     0 14.5 99.29     LegendNANA
05:00 12.8 10.5 86   20 6 14.5 99.32     LegendNANA
06:00 16.6 12.1 75   15 6 14.5 99.33     LegendNANA
07:00 19.3 9.0 51   11 11 14.5 99.34     LegendNANA
08:00 20.9 9.1 47   12 15 14.5 99.35     LegendNANA
09:00 22.5 9.2 43   11 22 14.5 99.33     LegendNANA
10:00 23.4 9.8 42   9 13 14.5 99.28 25   LegendNANA
11:00 25.3 10.2 39   9 19 14.5 99.25 27   LegendNANA
12:00 26.1 9.1 34   14 11 14.5 99.20 27   LegendNANA
13:00 26.9 9.6 34   15 13 14.5 99.18 28   LegendNANA
14:00 27.1 9.5 33   17 24 14.5 99.10 28   LegendNANA
15:00 27.2 9.1 32   16 19 14.5 99.04 28   LegendNANA
16:00 27.1 9.1 32   17 13 14.5 98.98 28   LegendNANA
17:00 26.9 9.1 33   14 15 14.5 98.94 28   LegendNANA
18:00 26.1 9.1 34   17 15 14.5 98.90 27   LegendNANA
19:00 24.2 9.1 38   16 13 14.5 98.88 25   LegendNANA
20:00 20.8 8.8 46   16 9 14.5 98.88     LegendNANA
21:00 18.8 8.4 51   16 9 14.5 98.90     LegendNANA
22:00 18.4 6.8 47   18 11 14.5 98.88     LegendNANA
23:00 16.8 7.3 54   18 9 14.5 98.88     LegendNANA

Notes on Data Quality.

Legend

  • E = Estimated
  • M = Missing
  • NA = Not Available*
  • [empty] = Indicates an unobserved value
Date modified: